W9SDA Weather Reports


time (UTC)temp
C
wind
direction
speed
KPH
gust
KPH
rain 1hr
cm
rain 24hr
cm
rain mn
cm
humidity
%
barometer
mb
20260906021601 25 0 0.0 0.0 0.00 0.00 0.00 89 1013.3
20260906020058 26 0 0.0 3.2 0.00 0.00 0.00 89 1013.0
20260906014633 26 0 0.0 0.0 0.00 0.00 0.00 88 1012.8
20260906013102 26 0 0.0 0.0 0.00 0.00 0.00 88 1012.8
20260906011605 26 0 0.0 0.0 0.00 0.00 0.00 87 1012.7
20260906010058 27 0 0.0 0.0 0.00 0.00 0.00 84 1012.5
20260906004606 27 0 0.0 0.0 0.00 0.00 0.00 81 1012.4
20260906003110 27 0 0.0 0.0 0.00 0.00 0.00 80 1012.4
20260906001603 28 0 0.0 0.0 0.00 0.00 0.00 80 1012.4
20260906000058 28 0 0.0 0.0 0.00 0.00 0.00 79 1012.5
20260905234558 28 0 0.0 4.8 0.00 0.00 0.00 78 1012.4
20260905233103 28 0 0.0 4.8 0.00 0.00 0.00 73 1012.4
20260905231602 28 0 0.0 6.4 0.00 0.00 0.00 71 1012.3
20260905230108 29 186 3.2 8.0 0.00 0.00 0.00 66 1012.6
20260905224614 31 323 3.2 12.9 0.00 0.00 0.00 65 1012.9
20260905223101 33 105 3.2 12.9 0.00 0.00 0.00 56 1012.5
20260905221616 35 45 1.6 8.0 0.00 0.00 0.00 51 1012.5
20260905220056 36 218 0.0 4.8 0.00 0.00 0.00 49 1012.5
20260905214603 37 89 1.6 14.5 0.00 0.00 0.00 49 1012.1
20260905213106 37 299 1.6 19.3 0.00 0.00 0.00 51 1012.0
20260905211603 37 346 0.0 8.0 0.00 0.00 0.00 48 1012.0
20260905210100 37 31 1.6 12.9 0.00 0.00 0.00 45 1012.4
20260905204603 36 351 1.6 8.0 0.00 0.00 0.00 49 1012.3
20260905203105 36 352 0.0 4.8 0.00 0.00 0.00 51 1012.5
20260905201623 37 349 4.8 16.1 0.00 0.00 0.00 48 1012.5
20260905200103 36 66 1.6 11.3 0.00 0.00 0.00 51 1012.8
20260905194556 36 19 3.2 8.0 0.00 0.00 0.00 48 1013.0
20260905193104 36 360 1.6 8.0 0.00 0.00 0.00 51 1013.0
20260905191559 37 243 1.6 14.5 0.00 0.00 0.00 44 1013.2
20260905184559 37 341 0.0 6.4 0.00 0.00 0.00 49 1013.4
20260905183052 37 143 3.2 9.7 0.00 0.00 0.00 49 1013.6
20260905181612 36 189 3.2 14.5 0.00 0.00 0.00 52 1013.9
20260905174602 35 5 3.2 11.3 0.00 0.00 0.00 54 1013.9
20260905173104 35 352 1.6 11.3 0.00 0.00 0.00 59 1014.0
20260905171602 34 97 1.6 9.7 0.00 0.00 0.00 61 1014.1
20260905170100 34 350 3.2 14.5 0.00 0.00 0.00 57 1014.4
20260905164554 33 35 4.8 14.5 0.00 0.00 0.00 61 1014.6
20260905163101 33 355 3.2 8.0 0.00 0.00 0.00 63 1014.8
20260905161604 32 5 3.2 12.9 0.00 0.00 0.00 63 1014.9
20260905160055 32 337 3.2 9.7 0.00 0.00 0.00 65 1015.0
20260905154619 32 5 4.8 11.3 0.00 0.00 0.00 65 1015.1
20260905153059 31 355 4.8 11.3 0.00 0.00 0.00 67 1015.1
20260905151603 31 23 1.6 12.9 0.00 0.00 0.00 68 1015.0
20260905150055 30 355 4.8 9.7 0.00 0.00 0.00 69 1015.0
20260905144600 30 32 3.2 12.9 0.00 0.00 0.00 72 1014.8
20260905143100 29 333 4.8 9.7 0.00 0.00 0.00 73 1014.8
20260905141600 29 5 3.2 8.0 0.00 0.00 0.00 74 1014.9
20260905140106 28 15 3.2 6.4 0.00 0.00 0.00 76 1014.9
20260905134601 27 15 3.2 6.4 0.00 0.00 0.00 81 1014.9
20260905133058 26 0 0.0 1.6 0.00 0.00 0.00 90 1014.8
20260905131606 25 0 0.0 1.6 0.00 0.00 0.00 93 1014.7
20260905130104 24 0 0.0 0.0 0.00 0.00 0.00 96 1014.7
20260905124604 23 0 0.0 3.2 0.00 0.00 0.00 96 1014.6
20260905123109 22 0 0.0 0.0 0.00 0.00 0.00 95 1014.5
20260905121603 22 0 0.0 1.6 0.00 0.00 0.00 94 1014.4
20260905114606 22 0 0.0 0.0 0.00 0.00 0.00 94 1014.0
20260905113100 22 0 0.0 0.0 0.00 0.00 0.00 94 1013.9
20260905111609 22 0 0.0 0.0 0.00 0.00 0.00 94 1013.8
20260905110100 22 0 0.0 0.0 0.00 0.00 0.00 93 1013.7
20260905104616 22 0 0.0 0.0 0.00 0.00 0.00 93 1013.7
20260905103100 22 0 0.0 0.0 0.00 0.00 0.00 92 1013.8
20260905101603 22 0 0.0 0.0 0.00 0.00 0.00 93 1013.8
20260905100100 22 0 0.0 0.0 0.00 0.00 0.00 92 1013.9
20260905094602 23 0 0.0 0.0 0.00 0.00 0.00 92 1013.8
20260905093104 23 0 0.0 0.0 0.00 0.00 0.00 92 1013.8
20260905091634 23 0 0.0 0.0 0.00 0.00 0.00 92 1013.8
20260905090057 23 0 0.0 0.0 0.00 0.00 0.00 91 1013.8
20260905084613 23 0 0.0 1.6 0.00 0.00 0.00 91 1013.9
20260905083100 23 0 0.0 0.0 0.00 0.00 0.00 91 1013.9
20260905081558 23 0 0.0 0.0 0.00 0.00 0.00 91 1013.9
20260905080109 23 0 0.0 0.0 0.00 0.00 0.00 91 1014.1
20260905074621 23 0 0.0 0.0 0.00 0.00 0.00 91 1014.1
20260905073058 23 0 0.0 0.0 0.00 0.00 0.00 91 1014.1
20260905071612 23 0 0.0 0.0 0.00 0.00 0.00 90 1014.2
20260905070112 23 0 0.0 0.0 0.00 0.00 0.00 90 1014.2
20260905064602 24 0 0.0 1.6 0.00 0.00 0.00 90 1014.2
20260905063102 24 0 0.0 3.2 0.00 0.00 0.00 90 1014.2
20260905061616 24 77 0.0 1.6 0.00 0.00 0.00 89 1014.3
20260905060059 24 0 0.0 1.6 0.00 0.00 0.00 90 1014.5
20260905054603 24 0 0.0 0.0 0.00 0.00 0.00 90 1014.4
20260905053056 25 0 0.0 3.2 0.00 0.00 0.00 88 1014.3
20260905051602 24 0 0.0 0.0 0.00 0.00 0.00 89 1014.3
20260905050100 24 0 0.0 0.0 0.00 0.00 0.00 90 1014.1
20260905044600 25 0 0.0 0.0 0.00 0.00 0.00 90 1014.1
20260905043055 25 0 0.0 0.0 0.00 0.00 0.00 90 1014.2
20260905041607 25 0 0.0 0.0 0.00 0.00 0.00 90 1014.1
20260905040103 25 0 0.0 0.0 0.00 0.00 0.00 89 1014.1
20260905034555 25 0 0.0 0.0 0.00 0.00 0.00 88 1014.1
20260905033111 25 31 0.0 0.0 0.00 0.00 0.00 88 1014.2
20260905031611 26 0 0.0 0.0 0.00 0.00 0.00 87 1014.4
20260905030055 26 0 0.0 0.0 0.00 0.00 0.00 86 1014.3
20260905024602 26 0 0.0 0.0 0.00 0.00 0.00 86 1014.3
20260905023104 26 0 0.0 0.0 0.00 0.00 0.00 85 1014.2